Location: C.E.K. Mees Observatory
(42.7003°N, 77.4088°W)
Time: 08:51:46
(UTC-05:00)

Envisat - Pass Details

Date: 22 November 2019
Orbit: 764 x 766 km, 98.1° (Epoch: 10 December)

Event Time Altitude Azimuth Distance (km) Brightness Sun altitude
Rises 18:43:38 0° 186° (S) 3,216 6.4 -22.2°
Reaches altitude 10° 18:46:04 10° 193° (SSW) 2,294 5.7 -22.6°
Maximum altitude 18:50:47 39° 262° (W) 1,128 4.4 -23.5°
Drops below altitude 10° 18:55:33 10° 332° (NNW) 2,309 5.7 -24.3°
Sets 18:58:01 0° 340° (NNW) 3,240 6.4 -24.8°
